Location: Lawrence Hall of Science
(37.8785°N, 122.2415°W)
Time: 21:24:12
(UTC-08:00)

Daily predictions for brighter satellites

Satellite Brightness Start Highest point End
(mag) Time Altitude Azimuth Time Altitude Azimuth Time Altitude Azimuth
Cosmos 1709 Rocket 4.1 18:15:45 10° SSE 18:21:46 54° E 18:27:44 10° NNE
Cosmos 1140 Rocket 3.7 18:20:12 10° S 18:25:07 49° ESE 18:30:05 10° NNE
Tiangong 2 2.0 18:23:12 10° WNW 18:26:10 45° SSW 18:29:07 10° SE
Okean 1 3.3 18:23:34 10° N 18:27:39 72° E 18:31:41 10° SSE
Cosmos 614 Rocket 4.3 18:25:43 10° S 18:30:27 40° ESE 18:35:11 10° NNE
BREEZE-M DEB (TANK) 3.4 18:25:36 10° NW 18:34:50 76° NNE 18:37:53 10° ESE
Cosmos 1025 Rocket 4.5 18:32:57 10° NNE 18:35:57 18° ENE 18:38:58 10° ESE
Cosmos 2360 Rocket 2.3 18:31:22 10° NNW 18:36:56 56° ENE 18:42:29 10° SE
Cosmos 2219 Rocket 3.8 18:34:14 10° NNE 18:37:27 15° NE 18:40:18 11° E
DELTA 2 R/B (1) 3.7 18:31:56 10° WNW 18:37:34 78° SSW 18:43:10 10° ESE
Cosmos 2219 3.8 18:33:49 10° S 18:39:00 36° ESE 18:44:12 10° NE
Spot 2 Rocket 4.3 18:40:12 10° SE 18:44:32 30° ENE 18:48:53 10° N
Cosmos 1602 3.6 18:43:53 10° S 18:47:44 76° E 18:51:39 10° N
Okean 1-7 Rocket 4.2 18:47:07 10° N 18:51:16 35° ENE 18:55:22 10° SE
USA 229 DEB 4.5 18:48:00 10° NNW 18:54:26 35° NE 18:59:39 15° ESE
USA 229 4.5 18:48:07 10° NNW 18:54:31 34° NE 18:59:42 15° ESE
Cosmos 1536 Rocket 4.0 18:50:38 10° NNW 18:55:05 67° W 18:59:31 10° S
HJ-1C 3.8 18:51:59 10° SE 18:55:08 39° ENE 18:58:19 10° N
Cosmos 1850 Rocket 4.0 18:51:47 10° S 18:56:59 62° ESE 19:02:15 10° NNE
Meteor 1-11 Rocket 3.8 18:51:57 10° S 18:57:43 79° E 19:03:39 10° NNE
H-2A R/B (2) 3.2 18:58:45 10° SSW 18:59:58 12° SSE 19:01:05 10° SE
Cosmos 1340 3.0 18:56:22 10° NNW 19:00:09 69° W 19:03:54 10° S
Cosmos 1238 Rocket 2.2 19:01:47 10° N 19:04:44 76° W 19:07:45 10° S
NOSS 8 (H) 4.5 19:03:11 10° SW 19:06:34 78° WNW 19:10:06 10° NNE
Cosmos 2333 Rocket 3.2 19:11:15 10° N 19:15:57 25° ENE 19:17:03 24° ENE
Genesis I 3.1 19:18:21 10° NNW 19:22:17 73° ENE 19:24:06 30° SE
SL-19 R/B 4.3 19:17:27 10° SSE 19:23:04 75° ENE 19:29:05 10° NNW
Resurs 01 Rocket 1.5 19:22:26 10° SSE 19:26:51 81° ENE 19:31:16 10° N
Helios 1A 3.3 19:27:18 40° E 19:27:34 40° ENE 19:31:28 10° N
SJ-6B 4.2 19:25:22 10° S 19:29:09 40° W 19:32:53 10° NNW
FENGYUN 3A 3.8 19:24:51 10° S 19:30:16 78° WSW 19:35:42 10° NNW
GPS 2-04 Rocket1 3.1 19:28:09 10° WSW 19:32:22 56° S 19:33:18 45° ESE
Hubble Space Telescope 2.7 19:30:02 10° SSW 19:32:44 17° SSE 19:32:54 17° SSE
FengYun 1-2 T 4.4 19:29:28 10° S 19:34:55 73° WSW 19:40:26 10° NNW
Helios 1B rocket 2.4 19:33:23 10° NNE 19:37:30 57° ESE 19:41:34 10° S
Okean 2 3.4 19:33:35 10° N 19:37:42 58° E 19:37:58 56° E
Meteor 1-5 Rocket 4.3 19:32:14 10° S 19:38:12 88° E 19:44:09 10° N
Resurs 1-3 3.6 19:37:31 10° S 19:41:54 82° WSW 19:46:19 10° NNW
Cosmos 1610 Rocket 4.4 19:36:19 10° S 19:42:29 69° E 19:48:37 10° NNE
GEOS 3 Rocket 3.9 19:37:59 10° NNE 19:43:13 70° NW 19:48:28 10° SW
CZ-2D R/B 3.1 19:44:27 59° SSE 19:45:09 90° E 19:48:59 10° NNW
Spot 1 3.7 19:45:20 70° E 19:45:25 70° ENE 19:49:33 10° N
OTV 4 2.8 19:43:33 10° SW 19:44:32 17° SSW 19:44:32 17° SSW
Cosmos 405 Rocket 3.9 19:42:19 10° N 19:44:45 32° NNE 19:44:45 32° NNE
Abrixas rocket 3.1 19:43:41 10° WSW 19:46:54 45° NNW 19:46:54 45° NNW
H-2A R/B 3.2 19:45:01 13° S 19:48:11 58° W 19:51:53 10° NNW
ATLAS CENTAUR R/B 2.4 19:44:34 10° SW 19:48:01 40° SSW 19:48:01 40° SSW
ALOS 3.5 19:46:37 10° SSW 19:51:00 41° W 19:55:25 10° NNW
Cosmos 1892 Rocket 4.1 19:59:10 10° N 20:02:24 49° N 20:02:24 49° N
COSMOS 2428 3.2 20:00:17 10° NNW 20:05:51 58° WSW 20:09:38 21° S
Cosmos 2333 4.5 20:00:21 10° NNW 20:06:02 67° WSW 20:08:57 30° S
Cosmos 2237 Rocket 2.8 20:01:28 10° N 20:05:45 40° NNE 20:05:45 40° NNE
Cosmos 2297 Rocket 4.2 20:02:02 10° S 20:02:40 13° S 20:02:40 13° S
Atlas Centaur 2 4.1 20:03:00 10° SSW 20:06:21 18° S 20:06:21 18° S
Cosmos 2219 Rocket 2.2 20:16:26 10° NNW 20:22:02 78° WSW 20:22:05 77° WSW
Cosmos 468 Rocket 4.2 20:18:15 10° NNW 20:22:45 65° NW 20:22:45 65° NW
Cosmos 2227 Rocket 3.0 20:21:46 10° SSW 20:25:12 39° SSW 20:25:12 39° SSW
Nadezhda 3 Rocket 4.0 20:26:49 10° N 20:32:57 73° W 20:33:37 67° SW
ATLAS 2A CENTAUR R/B 4.4 20:29:30 10° SW 20:32:28 20° S 20:32:28 20° S
Cosmos 2341 Rocket 4.1 20:30:28 10° S 20:37:33 70° NNW 20:43:14 10° N
Envisat 4.3 20:41:47 34° NNW 20:41:47 34° NNW 20:44:42 10° NNW
SL-16 R/B 4.1 20:36:03 10° N 20:37:46 19° N 20:37:46 19° N
USA 229 DEB 4.4 20:38:43 10° NW 20:45:37 52° WSW 20:47:10 45° SSW
USA 229 4.3 20:38:49 10° NW 20:45:44 53° WSW 20:47:12 46° SSW
NOSS 3-1 (A) 4.3 20:50:57 10° NNW 20:57:03 57° N 20:57:03 57° N
Cosmos 2333 Rocket 3.4 20:54:57 10° NW 20:59:07 39° WNW 20:59:07 39° WNW
ATLAS 2AS CENTAUR R/B 4.5 20:57:26 10° NNW 21:01:56 24° NNE 21:01:56 24° NNE
NOSS 3-1 (C) 4.4 21:09:49 10° NW 21:15:59 60° WNW 21:15:59 60° WNW
